Date,TemperatureHighF,TemperatureAvgF,TemperatureLowF,DewpointHighF,DewpointAvgF,DewpointLowF,HumidityHigh,HumidityAvg,HumidityLow,PressureMaxIn,PressureMinIn,WindSpeedMaxMPH,WindSpeedAvgMPH,GustSpeedMaxMPH,PrecipitationSumIn
2013-12-1,20.0,20.0,20.0,17.0,17.0,17.0,87,87,87,30.32,30.32,0,0,0,0.00
2013-12-2,25.0,25.0,25.0,23.0,23.0,23.0,91,91,91,30.23,30.23,0,0,4,0.00
2013-12-3,24.0,24.0,24.0,23.0,23.0,23.0,95,95,95,29.78,29.78,0,0,1,0.00
2013-12-4,25.0,25.0,25.0,24.0,24.0,24.0,95,95,95,29.37,29.37,1,1,2,0.00
2013-12-5,-6.0,-6.0,-6.0,-11.0,-11.0,-11.0,80,80,80,29.88,29.88,2,2,6,0.00
2013-12-6,-3.0,-3.0,-3.0,-6.0,-6.0,-6.0,85,85,85,29.83,29.83,2,2,3,0.00
2013-12-7,4.0,4.0,4.0,0.0,0.0,0.0,82,82,82,29.97,29.97,2,2,5,0.00
2013-12-8,16.0,16.0,16.0,14.0,14.0,14.0,92,92,92,29.56,29.56,0,0,0,0.00
2013-12-9,2.0,2.0,2.0,-2.0,-2.0,-2.0,84,84,84,29.91,29.91,0,0,1,0.00
2013-12-14,20.0,20.0,20.0,14.0,14.0,14.0,78,78,78,30.22,30.22,2,2,4,0.00
2013-12-15,17.0,17.0,17.0,12.0,12.0,12.0,80,80,80,30.43,30.43,1,1,2,0.00
2013-12-17,22.0,22.0,22.0,16.0,16.0,16.0,76,76,76,30.49,30.49,3,3,4,0.00
2013-12-18,25.0,25.0,25.0,16.0,16.0,16.0,69,69,69,30.32,30.32,1,1,2,0.00
2013-12-19,27.0,27.0,27.0,17.0,17.0,17.0,65,65,65,29.85,29.85,0,0,2,0.00
2013-12-24,22.0,22.0,22.0,18.0,18.0,18.0,86,86,86,30.36,30.36,0,0,1,0.00
2013-12-25,10.0,10.0,10.0,7.0,7.0,7.0,88,88,88,30.42,30.42,1,1,3,0.00
2013-12-26,10.0,10.0,10.0,4.0,4.0,4.0,77,77,77,30.47,30.47,1,1,4,0.00
2013-12-27,18.0,18.0,18.0,9.0,9.0,9.0,68,68,68,30.44,30.44,3,3,3,0.00
2013-12-28,20.0,20.0,20.0,14.0,14.0,14.0,77,77,77,30.25,30.25,1,1,3,0.00
2013-12-29,26.0,26.0,26.0,18.0,18.0,18.0,70,70,70,30.04,30.04,2,2,8,0.00
2013-12-30,16.0,16.0,16.0,9.0,9.0,9.0,74,74,74,30.19,30.19,0,0,3,0.00
2013-12-31,18.0,18.0,18.0,11.0,11.0,11.0,75,75,75,30.29,30.29,0,0,1,0.00